Radiation Dose at Monitoring Post of Fukushima Daini Nuclear Power Station
Date,Time,MP-1(microSv/h),MP-2(microSv/h),MP-3(microSv/h),MP-4(microSv/h),MP-5(microSv/h),MP-6(microSv/h),MP-7(microSv/h),Wind Direction,Wind Velocity(m/s),Rain
2019/04/27,00:00,0.196,0.183,0.300,0.277,0.268,0.149,0.092,north-northwest,5.2,Yes
2019/04/27,00:10,0.196,0.182,0.300,0.279,0.268,0.150,0.091,north-northwest,4.9,Yes
2019/04/27,00:20,0.196,0.185,0.298,0.278,0.268,0.149,0.092,north-northwest,5.6,Yes
2019/04/27,00:30,0.197,0.184,0.300,0.277,0.269,0.151,0.093,north-northwest,5.3,Yes
2019/04/27,00:40,0.197,0.184,0.300,0.278,0.270,0.151,0.093,north-northwest,5.7,Yes
2019/04/27,00:50,0.196,0.184,0.299,0.278,0.269,0.151,0.093,north-northwest,5.9,Yes
2019/04/27,01:00,0.196,0.183,0.298,0.277,0.269,0.150,0.092,north-northwest,5.3,Yes
2019/04/27,01:10,0.197,0.183,0.299,0.276,0.268,0.149,0.092,northwest,2.6,Yes
2019/04/27,01:20,0.196,0.184,0.300,0.278,0.269,0.150,0.091,northwest,2.9,Yes
2019/04/27,01:30,0.196,0.185,0.298,0.278,0.269,0.150,0.092,northwest,5.9,Yes
2019/04/27,01:40,0.197,0.186,0.299,0.279,0.270,0.151,0.094,north-northwest,5.1,Yes
2019/04/27,01:50,0.199,0.186,0.301,0.278,0.269,0.152,0.095,north-northwest,4.4,Yes
2019/04/27,02:00,0.200,0.186,0.300,0.280,0.271,0.154,0.096,northwest,4.4,Yes
2019/04/27,02:10,0.200,0.188,0.300,0.278,0.272,0.154,0.096,north,4.9,Yes
2019/04/27,02:20,0.200,0.187,0.301,0.279,0.270,0.154,0.097,north-northwest,4.0,Yes
2019/04/27,02:30,0.201,0.188,0.301,0.280,0.271,0.156,0.097,northwest,3.6,Yes
2019/04/27,02:40,0.199,0.187,0.299,0.279,0.272,0.153,0.096,north-northwest,2.8,Yes
2019/04/27,02:50,0.199,0.188,0.298,0.279,0.271,0.153,0.095,north,2.7,Yes
2019/04/27,03:00,0.198,0.186,0.298,0.278,0.270,0.153,0.096,north-northwest,2.9,Yes
2019/04/27,03:10,0.198,0.185,0.300,0.278,0.271,0.153,0.096,north,5.4,Yes
2019/04/27,03:20,0.199,0.188,0.300,0.279,0.271,0.154,0.097,north,3.3,Yes
2019/04/27,03:30,0.199,0.188,0.299,0.278,0.272,0.155,0.098,north,2.6,Yes
2019/04/27,03:40,0.200,0.190,0.299,0.278,0.272,0.155,0.098,north-northwest,2.5,Yes
2019/04/27,03:50,0.200,0.189,0.300,0.280,0.272,0.155,0.100,north-northwest,4.0,Yes
2019/04/27,04:00,0.200,0.188,0.300,0.278,0.272,0.155,0.099,north-northwest,4.5,Yes
2019/04/27,04:10,0.200,0.190,0.299,0.279,0.271,0.156,0.099,north-northwest,3.8,Yes
2019/04/27,04:20,0.199,0.189,0.300,0.278,0.273,0.155,0.098,northwest,4.4,Yes
2019/04/27,04:30,0.200,0.188,0.298,0.279,0.272,0.155,0.098,north-northwest,4.3,Yes
2019/04/27,04:40,0.199,0.188,0.299,0.278,0.271,0.156,0.098,north-northwest,5.4,Yes
2019/04/27,04:50,0.199,0.189,0.299,0.277,0.272,0.155,0.098,west-northwest,5.5,Yes
2019/04/27,05:00,0.199,0.188,0.299,0.278,0.273,0.154,0.099,north-northwest,4.3,Yes
2019/04/27,05:10,0.199,0.186,0.298,0.277,0.272,0.155,0.099,northwest,4.8,Yes
2019/04/27,05:20,0.197,0.188,0.297,0.276,0.271,0.154,0.098,northwest,4.2,Yes
2019/04/27,05:30,0.197,0.186,0.298,0.278,0.271,0.153,0.097,north-northwest,3.6,Yes
2019/04/27,05:40,0.197,0.185,0.298,0.278,0.272,0.152,0.095,north-northwest,3.4,No
2019/04/27,05:50,0.195,0.185,0.297,0.276,0.270,0.151,0.095,north-northwest,3.4,No
2019/04/27,06:00,0.194,0.185,0.295,0.274,0.270,0.149,0.094,north-northwest,3.6,No
2019/04/27,06:10,0.193,0.184,0.295,0.274,0.269,0.149,0.094,north-northwest,3.9,No
2019/04/27,06:20,0.193,0.182,0.293,0.274,0.267,0.148,0.092,north-northwest,3.7,No
2019/04/27,06:30,0.193,0.182,0.294,0.274,0.268,0.148,0.092,northwest,4.1,No
2019/04/27,06:40,0.192,0.182,0.294,0.272,0.267,0.147,0.091,northwest,4.0,No
2019/04/27,06:50,0.191,0.181,0.294,0.273,0.266,0.147,0.091,north-northwest,4.4,No
2019/04/27,07:00,0.192,0.182,0.294,0.274,0.267,0.146,0.091,northwest,4.4,No
2019/04/27,07:10,0.192,0.181,0.294,0.273,0.266,0.146,0.090,northwest,4.8,No
2019/04/27,07:20,0.192,0.181,0.293,0.273,0.265,0.146,0.090,northwest,4.1,No
2019/04/27,07:30,0.191,0.180,0.293,0.274,0.267,0.146,0.090,north-northwest,2.8,No
2019/04/27,07:40,0.191,0.182,0.292,0.273,0.267,0.146,0.090,north-northwest,2.6,No
2019/04/27,07:50,0.191,0.180,0.293,0.272,0.266,0.145,0.090,northwest,3.4,No
2019/04/27,08:00,0.191,0.181,0.293,0.273,0.267,0.145,0.090,north-northwest,3.5,No
2019/04/27,08:10,0.192,0.181,0.293,0.272,0.268,0.146,0.090,north-northwest,3.7,No
2019/04/27,08:20,0.192,0.181,0.292,0.272,0.266,0.146,0.090,northwest,3.9,No
2019/04/27,08:30,0.191,0.180,0.294,0.274,0.266,0.146,0.090,north-northwest,3.4,No
2019/04/27,08:40,0.191,0.180,0.294,0.274,0.267,0.146,0.090,north-northwest,4.1,No
2019/04/27,08:50,0.192,0.180,0.293,0.271,0.267,0.145,0.090,north-northwest,4.1,No
2019/04/27,09:00,0.191,0.181,0.293,0.274,0.267,0.146,0.090,north,5.0,Yes
2019/04/27,09:10,0.192,0.180,0.294,0.273,0.268,0.146,0.090,north,5.2,Yes
2019/04/27,09:20,0.192,0.180,0.294,0.273,0.266,0.146,0.090,north-northwest,4.2,No
2019/04/27,09:30,0.192,0.180,0.293,0.273,0.269,0.146,0.089,north,3.8,No
2019/04/27,09:40,0.191,0.180,0.294,0.274,0.267,0.146,0.089,north-northeast,4.2,No
2019/04/27,09:50,0.192,0.182,0.294,0.273,0.267,0.146,0.089,north-northeast,4.8,No
2019/04/27,10:00,0.192,0.180,0.292,0.273,0.267,0.146,0.089,north-northeast,5.2,No
2019/04/27,10:10,0.190,0.179,0.293,0.272,0.266,0.145,0.090,northeast,5.5,No
2019/04/27,10:20,0.193,0.182,0.294,0.272,0.267,0.146,0.090,northeast,5.3,No
2019/04/27,10:30,0.191,0.180,0.293,0.272,0.268,0.146,0.090,northeast,5.5,No
2019/04/27,10:40,0.192,0.179,0.293,0.273,0.268,0.146,0.090,north-northeast,4.3,No
2019/04/27,10:50,0.191,0.181,0.293,0.272,0.268,0.146,0.089,north,6.3,No
2019/04/27,11:00,0.191,0.181,0.293,0.273,0.268,0.146,0.089,north-northeast,6.2,No
2019/04/27,11:10,0.192,0.181,0.293,0.275,0.268,0.145,0.090,north-northeast,6.0,No
2019/04/27,11:20,0.192,0.180,0.293,0.272,0.268,0.146,0.089,north-northeast,6.4,No
2019/04/27,11:30,0.192,0.181,0.292,0.273,0.268,0.146,0.088,north-northeast,6.0,No
2019/04/27,11:40,0.192,0.181,0.295,0.275,0.267,0.147,0.090,north-northeast,5.3,No
2019/04/27,11:50,0.191,0.182,0.294,0.272,0.268,0.146,0.090,north-northeast,5.3,No
2019/04/27,12:00,0.192,0.180,0.293,0.273,0.267,0.147,0.090,north,5.5,No
2019/04/27,12:10,0.192,0.180,0.295,0.275,0.267,0.146,0.090,north,5.0,No
2019/04/27,12:20,0.192,0.181,0.293,0.274,0.268,0.147,0.090,north,4.9,No
2019/04/27,12:30,0.193,0.181,0.294,0.274,0.268,0.146,0.090,north,5.2,No
2019/04/27,12:40,0.193,0.181,0.296,0.274,0.269,0.147,0.090,north,4.8,No
2019/04/27,12:50,0.193,0.182,0.294,0.273,0.268,0.146,0.090,north,4.9,No
2019/04/27,13:00,0.192,0.182,0.293,0.274,0.268,0.147,0.089,north-northeast,5.0,No
2019/04/27,13:10,0.191,0.182,0.295,0.274,0.267,0.147,0.089,north-northeast,4.9,No
2019/04/27,13:20,0.191,0.181,0.295,0.274,0.269,0.148,0.090,north-northeast,6.0,No
2019/04/27,13:30,0.193,0.181,0.295,0.275,0.268,0.147,0.091,north-northeast,6.0,No
2019/04/27,13:40,0.193,0.182,0.295,0.275,0.269,0.147,0.090,north,4.8,No
2019/04/27,13:50,0.194,0.182,0.296,0.274,0.268,0.146,0.090,north-northeast,5.0,No
2019/04/27,14:00,0.192,0.182,0.295,0.275,0.268,0.147,0.090,north,5.5,No
2019/04/27,14:10,0.192,0.181,0.294,0.276,0.270,0.147,0.090,north,5.3,No
2019/04/27,14:20,0.192,0.182,0.295,0.274,0.267,0.147,0.089,north,5.5,No
2019/04/27,14:30,0.193,0.181,0.295,0.277,0.268,0.147,0.090,north,6.7,No
2019/04/27,14:40,0.193,0.183,0.294,0.274,0.270,0.147,0.090,north,5.7,No
2019/04/27,14:50,0.193,0.182,0.294,0.274,0.268,0.147,0.089,north,5.3,No
2019/04/27,15:00,0.194,0.181,0.297,0.274,0.268,0.148,0.090,north,5.1,No
2019/04/27,15:10,0.193,0.181,0.294,0.275,0.269,0.148,0.089,north,6.2,No
2019/04/27,15:20,0.192,0.182,0.296,0.274,0.269,0.146,0.089,north,6.5,No
2019/04/27,15:30,0.194,0.181,0.295,0.275,0.269,0.147,0.090,north-northeast,5.9,No
2019/04/27,15:40,0.193,0.181,0.294,0.275,0.269,0.147,0.090,north-northeast,6.3,No
2019/04/27,15:50,0.192,0.182,0.296,0.274,0.268,0.148,0.090,north-northeast,7.5,No
2019/04/27,16:00,0.193,0.181,0.296,0.275,0.268,0.147,0.090,north-northeast,6.6,No
2019/04/27,16:10,0.193,0.182,0.294,0.274,0.269,0.147,0.090,north-northeast,6.0,No
2019/04/27,16:20,0.193,0.181,0.295,0.273,0.269,0.147,0.090,north,5.3,No
2019/04/27,16:30,0.192,0.181,0.297,0.275,0.269,0.148,0.090,north,5.0,No
2019/04/27,16:40,0.194,0.181,0.296,0.275,0.269,0.148,0.090,north,4.8,No
2019/04/27,16:50,0.194,0.183,0.294,0.275,0.268,0.147,0.090,north-northeast,4.5,No
2019/04/27,17:00,0.192,0.182,0.297,0.276,0.269,0.147,0.090,north,4.4,No
2019/04/27,17:10,0.192,0.181,0.296,0.274,0.269,0.147,0.090,north-northeast,4.9,No
2019/04/27,17:20,0.193,0.181,0.296,0.275,0.268,0.148,0.090,north-northeast,5.3,No
2019/04/27,17:30,0.194,0.181,0.296,0.274,0.269,0.147,0.090,north,4.8,No
2019/04/27,17:40,0.193,0.182,0.295,0.275,0.269,0.147,0.090,north-northwest,3.1,No
2019/04/27,17:50,0.193,0.182,0.294,0.275,0.269,0.148,0.090,north-northwest,3.7,No
2019/04/27,18:00,0.193,0.181,0.295,0.276,0.268,0.147,0.090,north-northwest,4.5,No
2019/04/27,18:10,0.192,0.181,0.297,0.276,0.268,0.147,0.090,north-northwest,4.4,No
2019/04/27,18:20,0.193,0.183,0.295,0.274,0.269,0.147,0.089,north-northwest,4.2,No
2019/04/27,18:30,0.193,0.181,0.294,0.275,0.269,0.147,0.090,north,4.1,No
2019/04/27,18:40,0.194,0.181,0.295,0.275,0.269,0.148,0.090,north-northwest,3.7,No
2019/04/27,18:50,0.193,0.182,0.295,0.276,0.269,0.148,0.089,north-northwest,4.0,No
2019/04/27,19:00,0.193,0.182,0.296,0.274,0.268,0.147,0.090,north-northwest,3.4,No
2019/04/27,19:10,0.193,0.182,0.296,0.275,0.268,0.147,0.090,north-northwest,4.8,No
2019/04/27,19:20,0.193,0.181,0.296,0.276,0.269,0.148,0.089,north,4.8,No
2019/04/27,19:30,0.193,0.182,0.294,0.275,0.268,0.148,0.090,north-northwest,5.0,No
2019/04/27,19:40,0.195,0.181,0.295,0.274,0.268,0.146,0.089,north-northwest,4.6,No
2019/04/27,19:50,0.194,0.181,0.296,0.277,0.269,0.148,0.091,northwest,3.2,No
2019/04/27,20:00,0.193,0.182,0.296,0.275,0.269,0.147,0.089,north-northwest,4.4,No
2019/04/27,20:10,0.194,0.182,0.295,0.276,0.268,0.147,0.089,north-northwest,3.7,Yes
2019/04/27,20:20,0.194,0.183,0.295,0.275,0.269,0.147,0.089,north-northwest,4.2,No
2019/04/27,20:30,0.192,0.181,0.296,0.277,0.269,0.146,0.091,north-northwest,4.3,No
2019/04/27,20:40,0.193,0.182,0.297,0.277,0.267,0.147,0.091,north-northwest,4.8,No
2019/04/27,20:50,0.194,0.181,0.296,0.275,0.269,0.148,0.090,north-northwest,4.4,No
2019/04/27,21:00,0.193,0.183,0.296,0.276,0.270,0.148,0.091,north-northwest,4.9,No
2019/04/27,21:10,0.193,0.183,0.296,0.276,0.267,0.148,0.090,north-northwest,5.3,No
2019/04/27,21:20,0.194,0.182,0.295,0.275,0.269,0.148,0.090,northwest,4.0,No
2019/04/27,21:30,0.194,0.182,0.295,0.276,0.268,0.147,0.090,north-northwest,4.6,No
2019/04/27,21:40,0.193,0.183,0.296,0.274,0.268,0.147,0.090,northwest,5.4,No
2019/04/27,21:50,0.193,0.182,0.296,0.277,0.269,0.147,0.089,north-northwest,5.7,No
2019/04/27,22:00,0.194,0.181,0.295,0.276,0.268,0.148,0.090,north-northwest,6.2,No
2019/04/27,22:10,0.193,0.181,0.296,0.275,0.267,0.148,0.090,north-northwest,5.6,No
2019/04/27,22:20,0.193,0.181,0.295,0.276,0.268,0.147,0.089,north-northwest,4.5,No
2019/04/27,22:30,0.193,0.182,0.296,0.277,0.268,0.148,0.089,north-northwest,4.0,No
2019/04/27,22:40,0.193,0.182,0.297,0.274,0.269,0.148,0.090,north-northwest,4.1,No
2019/04/27,22:50,0.193,0.181,0.297,0.276,0.268,0.147,0.089,north-northwest,3.7,No
2019/04/27,23:00,0.193,0.181,0.296,0.275,0.270,0.147,0.089,north-northwest,3.7,No
2019/04/27,23:10,0.194,0.182,0.295,0.276,0.269,0.148,0.090,north-northwest,4.2,No
2019/04/27,23:20,0.194,0.182,0.296,0.276,0.269,0.148,0.090,north-northwest,4.4,No
2019/04/27,23:30,0.193,0.182,0.295,0.277,0.268,0.148,0.089,north-northwest,4.2,No
2019/04/27,23:40,0.193,0.182,0.295,0.276,0.270,0.148,0.090,north-northwest,4.5,No
2019/04/27,23:50,0.193,0.182,0.295,0.276,0.268,0.146,0.090,north-northwest,4.8,No
